Regional Weather Roundup
Issued by NWS Kansas City/Pleasant Hill, MO

Home | Current Version | Previous Version | Graphics & Text | Print | Product List | Glossary Off
Versions: 1 2 3 4 5 6 7 8 9 10 11 12 13 14 15 16 17 18 19 20 21 22 23 24 25 26 27 28 29 30 31 32 33 34 35 36 37 38 39 40 41 42 43 44 45 46 47 48 49 50

000
ASUS43 KEAX 060604
RWREAX

WEATHER ROUNDUP FOR EASTERN KANSAS AND NORTHWEST MISSOURI
NATIONAL WEATHER SERVICE KANSAS CITY/PLEASANT HILL MO
100 AM CDT MON JUL 06 2015

KSZ040-057-103>105-MOZ028-029-037-043-060700-
...KANSAS CITY METROPOLITAN AREA...

CITY           SKY/WX    TMP DP  RH WIND       PRES   REMARKS
K.C. INTL      CLOUDY    79  70  74 S13       29.90S
6HR MIN TEMP:  79; 6HR MAX TEMP:  86;

K.C. DOWNTOWN  MOCLDY    79  68  69 S8        29.90R
6HR MIN TEMP:  79; 6HR MAX TEMP:  89;

LEES SUMMIT    PTCLDY    75  66  73 S9        29.93S
6HR MIN TEMP:  75; 6HR MAX TEMP:  87;

OLATHE - IXD   MOCLDY    76  68  76 S9        29.92S
6HR MIN TEMP:  76; 6HR MAX TEMP:  88; 6HR PCP: TRACE;

OLATHE - OJC   MOCLDY    74  67  78 S9        29.91S
6HR MIN TEMP:  74; 6HR MAX TEMP:  86;

LAWRENCE       CLOUDY    81  69  67 S12       29.88F

$$

MOZ001>008-011>017-020>025-030>033-038>040-044>046-053-054-060700-
...NORTHERN AND CENTRAL MISSOURI...

CITY           SKY/WX    TMP DP  RH WIND       PRES   REMARKS
ST. JOSEPH     CLOUDY    81  72  74 S10       29.87R
6HR MIN TEMP:  81; 6HR MAX TEMP:  88;

MOSBY          MOCLDY    77  68  73 S8        29.91R
HARRISONVILLE  PTCLDY    73  68  83 S7        29.96S
WHITEMAN AFB   NOT AVBL
CLINTON        CLEAR     75  70  83 S7        29.96R
SEDALIA        CLEAR     73  67  81 S10       29.96S
6HR MIN TEMP:  73; 6HR MAX TEMP:  85;

WARSAW         FAIR      72  68  88 CALM      29.97S
CHILLICOTHE      N/A     78  72  81 S7        29.93R
6HR MIN TEMP:  78; 6HR MAX TEMP:  87;

KIRKSVILLE     PTCLDY    74  68  81 S10       29.96R
6HR MIN TEMP:  73; 6HR MAX TEMP:  83;


$$

MOZ041-047>049-056>058-063>065-088>090-097-060700-
...EASTERN AND SOUTHERN MISSOURI...

CITY           SKY/WX    TMP DP  RH WIND       PRES   REMARKS
ST. LOUIS INTL CLEAR     78  68  71 S6        30.00S
6HR MIN TEMP:  78; 6HR MAX TEMP:  85;

SPIRIT OF STL  CLEAR     75  70  84 S5        29.98S
COLUMBIA       CLEAR     74  71  91 S7        29.97S
JEFFERSON CITY CLEAR     76  71  85 SE5       29.96S
MEXICO         CLEAR    N/A N/A N/A S7        29.97S
ROLLA          CLEAR     73  71  93 S9        29.99S
LEBANON        MOCLDY    73  70  88 MISG      30.01S
OSAGE BEACH    CLEAR     73  68  83 S5        29.99R
SPRINGFIELD    CLEAR     71  68  90 S9        30.00S
JOPLIN         CLEAR     73  67  81 SE8       29.97R
WEST PLAINS    MOCLDY    74  71  91 S9        30.04F
MALDEN         PTCLDY    75  72  88 S6        30.03F

$$

IAZ060-094-KSZ022-034>040-054-083-096-NEZ052-066-093-060700-
...KANSAS...SOUTHEAST NEBRASKA AND IOWA...

CITY           SKY/WX    TMP DP  RH WIND       PRES   REMARKS
TOPEKA         CLOUDY    83  74  74 S15G22    29.87S
6HR MIN TEMP:  83; 6HR MAX TEMP:  91;

MANHATTAN      CLOUDY    84  72  67 S15G23    29.84S
EMPORIA        MOCLDY    80  72  76 S16       29.89F
CHANUTE        PTCLDY    78  73  84 S8        29.93R
WICHITA        CLOUDY    83  69  62 S16       29.91R
OMAHA          TSTM      79  75  87 E10       29.83R
LINCOLN        CLOUDY    82  71  69 S14       29.80R
FALLS CITY     CLOUDY    83  73  72 S12G20    29.84R
LAMONI         MOCLDY    77  73  87 S9        29.89S
DES MOINES     CLOUDY    77  70  79 S15G23    29.85F

$$



USA.gov is the U.S. government's official web portal to all federal, state and local government web resources and services.